Content
SEND FEEDBACK

Ukraine Flag

DNIPROPETROVS'K, UKRAINE


Home > Europe > Ukraine
Elevation: 466 feet     Latitude: 48 22N     Longitude: 035 05E

WEATHER
 
SELECT A DAY
Number of Records: 259,395;   Date Range: 2/14/99 - 3/22/16
 
SHARE

PRINT THIS DATA

[ ← Previous Day ]
WEATHER ALMANAC - FEBRUARY 12, 2013
[ Next Day → ]
[ °C ]   °F
Weather ElementAverageHighLow
Temperature35 °F36 °F (2:00 am)33 °F (11:00 pm)
Dewpoint33.9 °F35.6 °F (1:00 am)33 °F (8:00 am)
Humidity95.5 %100 % (1:00 am)88 % (2:00 am)
Barometer30.06 in30.24 in (11:00 pm)29.92 in (1:00 am)
Wind Speed4.8 mph8.9 mph (1:00 am)
Weather ElementAverage
Visibility3.6 mi
Wind DirectionE (86.5 °)

Weather ElementTotal
Precipitation---
Heating Degree Days30.5 (Base 65)
Averaged from 53 records on February 12, 2013
WEATHER CONDITIONS BREAKOUT
WIND DIRECTION BREAKOUT
WEATHER BY HOUR - FEBRUARY 12, 2013
[ °C ]   °F
Local TimeTemperatureDewpointHumidityBarometerVisibilityWind DirectionWind SpeedGust SpeedPrecipitationEventsConditions
1:00 AM35.6 °F35.6 °F100 %29.92 inESE (120°)8.9 mphRainLight Rain
1:30 AM35.6 °F35.6 °F100 %29.92 in6.2 miESE (120°)8.9 mphRainLight Rain
2:00 AM36.0 °F34.0 °F88 %29.96 in6.0 miESE (120°)8.9 mphRainLight Rain
2:00 AM35.6 °F33.8 °F93 %29.92 in6.2 miESE (120°)8.9 mphOvercast
2:30 AM35.6 °F33.8 °F93 %29.92 in6.2 miESE (120°)6.7 mphOvercast
3:00 AM35.6 °F33.8 °F93 %29.92 in6.2 miESE (120°)4.5 mphRainLight Rain
3:30 AM35.6 °F33.8 °F93 %29.92 in6.2 miEast (100°)6.7 mphOvercast
4:00 AM35.6 °F33.8 °F93 %29.92 in6.2 miEast (100°)4.5 mphRainLight Rain
4:30 AM35.6 °F33.8 °F93 %29.95 in6.2 miEast (100°)4.5 mphRainLight Rain
5:00 AM35.0 °F34.0 °F96 %29.97 in3.0 miEast (100°)4.5 mphRainLight Rain
5:00 AM35.6 °F33.8 °F93 %29.95 inEast (100°)4.5 mphRainLight Rain
5:30 AM35.6 °F33.8 °F93 %29.95 in0.7 miEast (100°)6.7 mphRainLight Rain
6:00 AM35.6 °F33.8 °F93 %29.95 in1.2 miEast (100°)8.9 mphRainLight Rain
6:30 AM33.8 °F33.8 °F100 %29.98 in1.4 miEast (100°)8.9 mphRainLight Rain
7:00 AM33.8 °F33.8 °F100 %29.98 in1.6 miEast (100°)8.9 mphOvercast
7:30 AM33.8 °F33.8 °F100 %29.98 in1.4 miESE (110°)6.7 mphOvercast
8:00 AM34.0 °F33.0 °F97 %30.03 in1.0 miESE (110°)8.9 mphMist
8:00 AM33.8 °F33.8 °F100 %30.01 in1.5 miESE (110°)6.7 mphOvercast
8:30 AM33.8 °F33.8 °F100 %30.01 inESE (110°)8.9 mphOvercast
9:00 AM35.6 °F33.8 °F93 %30.01 in1.5 miESE (110°)8.9 mphOvercast
9:30 AM35.6 °F33.8 °F93 %30.04 in2.2 miESE (120°)6.7 mphOvercast
10:00 AM35.6 °F33.8 °F93 %30.04 inESE (120°)8.9 mphOvercast
10:30 AM35.6 °F33.8 °F93 %30.04 in6.2 miSE (130°)6.7 mphRainLight Rain
11:00 AM36.0 °F34.0 °F88 %30.08 in3.0 miSSE (150°)4.5 mphRainLight Rain
11:00 AM35.6 °F33.8 °F93 %30.04 in3.1 miSSE (150°)4.5 mphRainLight Rain
11:30 AM35.6 °F33.8 °F93 %30.06 in3.1 miSSE (150°)4.5 mphRainLight Rain
12:00 PM35.6 °F33.8 °F93 %30.06 in6.2 miSSE (150°)4.5 mphRainLight Rain
12:30 PM35.6 °F33.8 °F93 %30.06 in2.2 miCalmRainLight Rain
1:00 PM35.6 °F33.8 °F93 %30.06 in1.4 miCalmRainLight Rain
1:30 PM33.8 °F33.8 °F100 %30.06 in1.7 miCalmRainLight Rain
2:00 PM35.0 °F34.0 °F94 %30.11 in2.0 miCalmRainLight Rain
2:00 PM35.6 °F33.8 °F93 %30.09 inCalmRainLight Rain
2:30 PM35.6 °F33.8 °F93 %30.09 in3.1 miCalmOvercast
3:00 PM35.6 °F33.8 °F93 %30.09 in6.2 miCalmOvercast
3:30 PM35.6 °F33.8 °F93 %30.09 in6.2 miCalmOvercast
4:00 PM35.6 °F33.8 °F93 %30.12 in6.2 miCalmOvercast
4:30 PM35.6 °F33.8 °F93 %30.12 in6.2 miCalmOvercast
5:00 PM35.6 °F33.8 °F93 %30.12 in6.2 miCalmOvercast
5:30 PM35.6 °F35.6 °F100 %30.12 inENE (70°)4.5 mphOvercast
6:00 PM35.6 °F33.8 °F93 %30.15 in6.2 miEast (100°)4.5 mphOvercast
6:30 PM35.6 °F33.8 °F93 %30.15 in6.2 miESE (120°)6.7 mphOvercast
7:00 PM35.6 °F33.8 °F93 %30.15 inESE (110°)4.5 mphOvercast
7:30 PM33.8 °F33.8 °F100 %30.15 in6.2 miEast (100°)4.5 mphOvercast
8:00 PM34.0 °F34.0 °F98 %30.21 in3.0 miESE (120°)4.5 mphMist
8:00 PM33.8 °F33.8 °F100 %30.18 inESE (110°)4.5 mphOvercast
8:30 PM33.8 °F33.8 °F100 %30.18 inESE (110°)4.5 mphOvercast
9:00 PM33.8 °F33.8 °F100 %30.18 inEast (90°)4.5 mphRainLight Rain
9:30 PM33.8 °F33.8 °F100 %30.18 in1.6 miEast (80°)4.5 mphRainLight Rain
10:00 PM33.8 °F33.8 °F100 %30.18 in1.0 miENE (70°)4.5 mphRainRain
10:30 PM33.8 °F33.8 °F100 %30.18 in0.6 miENE (70°)4.5 mphRainRain
11:00 PM33.0 °F33.0 °F97 %30.24 in1.0 miENE (70°)4.5 mphRainLight Rain
11:00 PM33.8 °F33.8 °F100 %30.21 in0.7 miENE (70°)4.5 mphRainRain
11:30 PM33.8 °F33.8 °F100 %30.21 in0.5 miENE (70°)4.5 mphRainRain
Hourly data recorded from UKDD, located miles away from Dnipropetrovs'k, Ukraine




STORIES FROM OUR PARTNERS